Wind_Speed
12 13 13 14 14 14 14 14 14 13 14 15 16 18 19 20 22 12 9 4 6 12 12 12 11 9 12 16 17 14 12 16 22 19 15 6 15 11 7 6 8 3 3 10 6
14 15 15 16 16 16 15 14 13 13 13 15 16 17 18 19 18 2 6 6 12 14 7 8 13 13 14 17 12 15 16 26 20 14 11 15 14 10 9 16 14 9 4 5 5
16 16 17 17 17 17 16 15 12 14 15 16 16 16 16 16 6 5 2 14 17 11 8 8 9 14 19 16 23 22 26 22 22 17 15 18 18 13 13 17 17 14 14 2 4
18 18 19 19 19 18 16 13 12 15 18 17 14 11 13 7 1 4 6 14 11 6 6 4 7 17 19 26 21 25 26 27 24 16 16 21 21 24 21 20 17 9 10 13 13
19 19 19 19 19 16 14 12 12 15 15 13 12 11 7 4 5 3 12 12 7 4 6 7 10 13 24 19 25 28 30 23 23 22 18 18 25 24 26 22 20 20 17 19 19
19 19 20 20 19 15 13 10 12 14 13 12 9 7 6 3 6 7 11 13 7 7 4 8 9 9 15 22 24 18 27 30 27 20 22 23 28 22 29 24 23 20 22 21 21
21 21 21 21 21 16 14 12 14 10 12 6 5 2 4 7 8 12 12 10 9 8 8 6 12 11 5 15 20 24 26 24 23 29 26 19 30 36 28 25 23 23 24 23 23
23 23 23 22 21 16 14 13 14 10 2 2 0 3 3 3 9 11 12 13 6 8 10 9 8 14 17 15 15 16 22 24 33 24 25 23 29 37 27 27 27 28 27 25 27
23 23 23 23 20 16 13 16 10 2 2 3 2 5 2 7 12 10 12 12 14 12 7 9 7 15 14 17 16 20 24 31 30 28 24 22 37 37 30 23 27 23 25 24 23
22 23 23 23 18 15 14 8 3 3 1 4 4 4 3 10 17 18 10 11 10 7 7 9 8 12 14 16 23 27 26 27 28 23 27 30 35 30 22 18 27 26 22 21 18
25 25 24 22 16 9 13 4 4 6 4 6 5 5 10 15 15 7 9 10 5 8 12 8 11 14 18 22 28 24 28 24 21 22 24 28 33 31 28 28 28 24 23 24 24
28 26 24 20 10 6 7 4 5 5 8 9 10 11 12 7 11 9 5 6 10 11 9 10 16 15 16 19 23 25 27 28 19 16 21 25 30 28 27 25 27 27 26 26 25
30 27 24 14 2 4 3 5 2 10 6 3 3 7 5 10 9 9 5 10 11 13 11 16 17 13 12 16 20 23 26 25 25 15 21 20 24 25 21 23 23 25 25 26 26
32 28 21 5 1 2 1 0 7 6 5 6 3 2 6 11 9 14 5 7 9 11 12 14 13 16 16 19 18 24 23 22 25 23 20 20 19 23 24 28 30 28 26 27 26
34 25 15 2 3 1 2 6 6 4 5 3 2 3 9 6 9 3 7 7 14 16 13 20 19 13 17 18 19 18 21 19 20 22 24 30 17 19 19 22 23 21 24 24 25
35 17 5 3 2 1 6 4 5 6 2 2 2 8 9 6 10 5 9 10 11 13 15 19 14 16 17 13 11 15 13 19 19 15 18 23 18 19 18 24 18 18 19 20 19
33 8 3 2 4 4 5 4 5 5 2 1 7 10 15 8 11 9 13 11 6 8 10 15 13 16 20 20 15 13 16 12 17 18 18 20 17 19 9 9 1 10 10 9 12
26 2 1 1 5 5 5 6 5 4 5 8 8 17 9 10 9 13 11 12 2 10 13 8 10 8 7 23 19 22 19 16 18 16 20 25 15 15 12 17 7 7 9 10 11
13 1 2 2 3 6 7 5 3 4 5 9 15 8 8 5 11 9 11 9 5 6 8 11 7 11 12 11 18 23 14 24 24 21 16 19 24 25 10 10 5 1 7 12 12
9 3 2 6 5 8 4 4 3 3 8 8 9 6 13 16 13 8 9 4 6 6 4 9 14 10 4 11 10 21 1 7 15 16 18 15 23 12 21 23 4 7 13 15 13
6 4 4 5 4 4 3 5 8 6 8 6 10 16 14 12 12 10 6 12 5 7 13 14 9 10 13 6 15 4 7 13 14 17 9 13 15 20 14 11 6 11 15 15 11
7 3 5 6 5 1 4 8 7 6 5 8 9 11 11 13 11 15 13 8 12 12 14 16 6 12 14 6 11 9 17 4 5 16 13 10 4 11 18 10 11 15 17 16 10
7 3 2 7 3 6 8 9 7 9 5 4 8 8 14 16 8 8 12 11 10 14 6 5 7 9 11 7 10 11 15 14 21 4 17 11 5 14 9 8 13 17 18 17 9
4 3 2 2 2 6 10 5 5 3 11 6 10 13 12 13 13 10 18 12 13 14 17 10 14 15 14 17 9 8 10 13 11 10 14 16 16 13 10 11 14 16 18 17 9
2 2 3 4 4 9 9 7 9 7 4 9 7 10 11 10 18 23 20 15 17 19 17 5 11 16 18 21 18 18 17 16 17 18 18 19 21 20 17 15 16 17 18 16 9
4 3 4 11 7 8 1 5 9 6 12 14 13 14 15 18 21 26 26 21 9 7 17 6 6 14 19 19 20 21 20 19 20 20 18 23 27 22 20 19 20 18 15 14 11
0 1 2 6 6 6 5 8 14 16 10 9 11 15 20 22 20 24 24 24 18 9 7 8 5 10 15 15 14 16 20 21 22 21 21 22 25 21 20 19 18 16 16 13 11
Wind_Direction
357 351 347 344 343 341 338 335 332 331 330 327 326 328 332 326 328 312 270 336 320 324 317 278 263 235 224 227 220 234 238 241 242 233 246 261 252 217 261 261 205 185 81 77 107
350 346 344 343 341 339 338 335 333 334 330 323 318 324 332 330 322 319 111 37 10 354 319 268 231 216 213 216 214 213 228 238 241 250 238 239 246 243 231 215 220 214 141 77 150
347 344 343 341 341 340 341 341 345 341 330 321 319 326 338 331 271 68 152 327 326 334 314 288 258 230 226 223 215 220 239 241 239 229 234 249 250 229 243 233 226 225 180 214 281
347 344 341 341 340 341 344 344 348 345 342 344 338 334 333 307 338 104 332 329 324 318 299 277 241 219 229 228 223 239 244 243 255 227 237 240 248 250 247 242 257 256 261 272 265
343 341 338 337 337 340 345 345 341 337 335 342 341 338 340 247 54 317 333 336 355 330 258 263 253 235 238 233 232 239 243 246 244 255 235 254 250 252 250 246 249 258 266 267 266
343 340 336 335 335 340 345 344 335 323 319 326 330 354 312 60 350 331 311 317 302 320 291 244 248 262 275 257 246 239 245 250 254 235 246 243 255 249 245 247 254 259 261 265 269
342 341 337 335 334 337 339 337 331 315 318 323 329 293 268 23 335 327 323 299 296 283 300 296 256 244 285 256 256 258 262 259 245 243 238 245 255 247 251 252 255 258 260 262 265
343 341 338 335 334 338 336 334 324 310 321 273 168 273 278 307 331 330 331 332 288 259 272 292 240 243 254 266 279 252 245 247 238 229 239 225 253 245 241 251 253 255 259 260 261
341 338 336 332 332 337 337 328 323 337 41 131 200 283 81 306 333 341 324 314 316 281 252 267 229 239 232 235 251 236 239 231 248 231 222 221 243 255 256 254 248 253 258 261 262
338 333 332 329 332 337 341 339 355 96 60 230 250 242 234 342 336 322 321 309 298 279 234 228 237 240 228 231 232 232 235 245 259 238 229 225 242 248 264 246 250 245 252 250 257
340 335 334 332 338 347 350 267 243 187 301 313 330 299 291 324 318 301 344 317 265 251 259 233 260 257 256 242 251 265 267 254 270 243 254 236 245 251 248 248 254 250 251 260 263
343 337 333 332 346 14 2 31 43 352 296 284 260 262 276 296 302 312 328 301 309 282 264 253 248 263 276 272 262 245 252 256 259 264 244 240 249 250 250 252 251 253 255 262 265
345 337 332 333 28 13 17 43 17 335 264 265 255 282 302 301 297 286 291 312 288 283 268 263 274 300 268 255 249 253 247 249 248 244 237 248 253 252 248 252 256 257 257 258 260
347 336 334 358 94 356 101 261 322 309 269 143 191 158 294 312 253 304 248 300 271 284 298 278 287 269 256 256 250 247 249 247 250 247 244 226 256 247 242 242 241 246 249 255 259
348 338 329 187 340 300 38 306 307 210 275 70 151 350 298 289 302 339 271 300 281 290 281 273 283 268 246 258 248 261 243 247 247 239 248 246 256 262 254 255 253 253 251 254 257
349 341 8 84 187 328 329 303 187 232 238 147 282 325 313 314 311 299 291 287 270 280 271 281 273 267 258 269 266 257 255 249 241 265 244 238 240 259 253 247 250 254 247 255 261
347 340 110 150 12 317 321 212 251 270 97 56 330 323 318 303 316 331 321 307 302 305 306 314 262 244 232 253 243 235 234 234 223 225 238 234 233 242 330 109 32 268 232 279 278
345 331 262 247 316 314 277 245 266 17 312 336 316 309 297 338 333 328 310 310 235 280 302 317 309 346 302 230 236 238 231 236 232 228 230 224 234 225 233 261 282 254 268 278 290
358 306 189 330 320 314 278 260 299 339 344 319 313 293 310 289 313 317 317 315 313 350 320 314 302 302 287 275 231 247 226 260 260 281 241 219 214 256 250 247 211 320 338 326 313
332 249 118 321 302 283 272 281 284 286 306 303 302 298 313 325 311 323 311 319 304 300 323 311 302 315 337 271 226 247 314 291 239 255 234 223 210 222 209 228 190 18 351 347 338
310 254 51 337 276 263 275 326 309 314 295 285 297 295 300 316 299 299 282 297 304 310 307 290 272 286 258 233 250 259 229 236 253 238 255 225 208 200 123 102 62 15 4 3 348
324 267 13 333 251 241 283 339 336 297 276 262 280 282 295 301 289 289 286 264 301 304 297 292 287 280 279 253 202 200 241 271 268 226 248 302 79 100 123 97 30 10 8 19 7
324 299 353 314 340 326 322 295 269 289 295 286 292 285 302 287 297 289 287 289 288 289 291 330 247 279 261 166 205 232 214 205 239 279 278 234 173 164 151 72 25 0 358 359 32
308 308 145 19 9 320 333 305 307 257 280 272 268 299 293 292 275 276 282 282 277 272 287 285 260 259 277 299 310 290 273 274 269 277 253 244 252 174 230 335 349 342 340 351 42
341 41 1 302 333 321 297 283 303 318 290 295 283 261 298 295 298 288 282 292 289 276 279 257 248 258 266 276 277 276 271 261 252 260 263 264 263 256 268 309 322 315 317 333 47
348 347 342 293 304 301 356 293 298 319 310 284 285 298 303 285 282 290 291 291 265 263 217 209 266 263 267 260 257 265 266 260 254 251 253 260 261 267 285 294 289 290 303 319 4
101 129 262 304 308 313 309 327 313 314 308 272 287 303 293 289 293 289 287 281 268 243 212 188 224 252 254 244 257 265 261 254 252 247 241 246 256 266 266 270 279 290 296 304 315
Height
838 835 832 830 827 824 821 819 817 814 811 807 803 800 796 792 789 788 787 788 785 782 779 779 779 777 776 768 765 765 769 762 753 755 752 739 742 722 722 724 726 721 720 725 729
837 834 831 828 825 822 819 817 815 812 809 805 802 799 795 791 789 784 787 785 784 782 779 776 771 772 768 765 761 761 758 746 736 737 751 742 739 727 733 729 728 726 730 730 731
836 833 830 827 823 820 817 814 812 809 806 802 799 796 793 790 786 780 783 783 783 782 779 776 772 768 765 758 752 749 746 730 730 733 741 740 733 728 735 731 720 723 727 728 732
835 831 828 824 821 817 815 812 810 807 803 799 797 794 792 792 777 785 786 783 779 778 776 773 772 767 761 754 746 753 734 734 729 731 742 741 730 729 725 726 716 717 724 728 729
834 831 827 824 819 816 813 810 807 805 802 799 796 793 792 782 782 785 783 783 780 777 774 771 769 765 755 747 746 742 734 729 730 733 735 736 730 727 721 716 716 718 722 725 723
833 829 825 822 817 814 811 808 806 803 800 798 795 793 791 780 785 784 782 780 778 776 772 771 766 762 757 749 741 733 734 732 728 731 731 738 724 726 712 712 713 719 717 715 714
830 827 823 819 815 811 808 806 803 800 798 796 795 795 791 784 784 782 780 778 777 775 771 769 768 765 753 755 744 740 743 733 727 725 729 729 731 715 708 709 711 713 711 710 710
828 824 819 815 812 808 805 803 800 798 796 795 794 795 782 782 781 779 776 772 771 773 772 768 766 762 758 751 749 750 745 741 711 722 721 732 726 693 700 704 706 705 703 702 701
827 823 819 814 810 806 803 800 797 795 795 793 794 792 776 780 777 777 775 772 769 766 768 768 764 757 751 755 752 737 732 721 718 705 719 726 718 695 695 696 696 697 694 694 692
826 822 818 813 808 805 801 797 795 795 795 794 792 790 778 778 777 775 772 770 768 764 764 762 758 752 748 744 736 724 721 721 716 701 705 713 705 698 691 691 689 689 690 688 689
823 819 815 810 806 803 799 797 794 789 789 786 785 785 780 780 777 773 770 768 765 763 758 748 752 744 739 733 729 726 718 709 706 699 703 700 698 695 692 691 690 688 689 689 688
821 816 812 808 805 803 801 798 802 805 792 784 785 784 783 782 777 767 770 766 761 758 747 753 746 737 736 735 731 730 731 719 714 703 703 703 697 691 686 683 681 683 683 684 683
818 813 809 805 804 804 803 803 803 803 790 781 779 778 776 776 770 767 766 762 760 756 749 747 736 734 742 740 743 733 732 726 719 710 707 708 702 693 682 681 681 679 680 680 678
814 809 806 803 806 803 802 804 803 802 783 777 775 774 773 769 766 763 762 763 757 754 749 742 733 735 737 737 732 734 723 721 721 720 716 701 705 683 676 674 672 671 671 668 665
811 805 802 801 805 801 806 804 802 802 773 775 773 774 769 770 768 758 758 755 756 750 748 737 733 735 733 727 722 724 717 717 718 714 713 706 705 679 673 673 667 663 660 658 656
809 803 800 802 804 805 804 802 802 786 776 774 772 771 767 761 760 755 754 750 747 748 739 732 727 729 727 720 720 719 722 719 720 717 710 696 696 678 669 659 655 650 648 650 646
807 803 802 802 801 803 802 799 786 774 775 772 774 769 765 761 758 756 754 748 750 755 735 728 723 718 723 728 719 720 723 723 721 716 712 688 695 683 654 643 651 654 647 646 643
805 802 802 803 803 802 800 789 786 776 775 773 773 767 765 763 758 756 752 745 740 750 742 739 732 729 720 720 723 721 716 713 706 694 691 685 688 672 653 649 646 649 645 642 638
803 803 803 803 800 800 792 783 778 778 781 779 773 765 757 757 756 753 750 746 743 742 754 741 733 719 721 714 716 719 724 707 699 689 671 662 672 662 650 652 646 645 644 641 635
805 801 799 800 799 797 788 789 781 783 783 780 781 768 765 759 759 752 749 744 745 741 744 742 741 720 718 718 712 716 724 737 700 711 686 656 659 661 642 652 647 650 647 636 631
805 794 800 799 798 789 790 780 784 783 784 782 775 770 765 766 758 753 752 746 742 742 740 736 740 727 718 718 712 728 726 723 704 686 671 659 645 630 640 650 657 652 643 636 635
806 790 799 798 788 793 786 788 794 782 780 780 775 770 767 763 762 752 749 748 742 743 742 733 738 729 713 703 706 717 726 726 727 701 672 674 648 631 640 648 653 650 643 635 645
809 801 799 797 794 791 784 786 786 783 779 778 777 770 768 765 768 752 749 743 746 745 740 738 729 723 703 704 703 706 701 717 710 711 698 671 651 642 640 643 650 653 646 636 645
812 799 792 796 797 796 790 784 780 780 778 775 776 771 765 764 756 759 749 744 743 743 743 748 734 727 715 695 698 705 705 696 696 702 690 673 652 644 641 644 651 657 649 639 646
816 806 810 791 792 796 793 791 786 782 777 775 771 770 772 772 755 749 737 735 743 745 747 747 733 721 713 705 702 704 702 699 697 690 690 682 659 651 649 650 655 659 651 644 648
818 818 811 802 800 796 791 781 781 778 779 772 773 767 770 769 759 749 740 739 747 739 741 747 730 719 712 705 696 696 692 691 690 688 686 677 665 658 657 658 660 656 651 646 645
826 826 825 806 798 799 789 787 785 782 772 769 770 771 764 752 744 736 733 728 733 740 740 738 735 717 709 692 689 691 679 676 674 672 674 671 661 656 657 657 655 654 649 645 644